Regional Weather Roundup
Issued by NWS

Home | Current Version | Previous Version | Graphics & Text | Print | Product List | Glossary On
Versions: 1 2 3 4 5 6 7 8 9 10 11 12 13 14 15 16 17 18 19 20 21 22 23 24 25 26 27
000
ASUS45 KBOU 221610
RWRCO

WEATHER ROUNDUP FOR COLORADO
NATIONAL WEATHER SERVICE DENVER/BOULDER CO
900 AM MST WED NOV 22 2017

NOTE: "FAIR" INDICATES FEW OR NO CLOUDS BELOW 12000 FEET WITH NO
SIGNIFICANT WEATHER AND/OR OBSTRUCTIONS TO VISIBILITY.

COZ001>005-013-030-031-221700-
...NORTHWEST COLORADO...

CITY           SKY/WX    TMP DP  RH WIND       PRES   REMARKS
CRAIG          CLOUDY    37  33  85 CALM      30.48R
HAYDEN         CLOUDY    40  35  83 SE7       30.50R
MEEKER         FAIR      38  33  82 CALM      30.49S
RABBIT EARS PA FOG      N/A N/A N/A W14G21    30.55R VSB 1/2
STEAMBOAT SPGS CLOUDY    34  33  97 CALM      30.50R
WALDEN         FAIR      41  32  70 SW6       30.48R
$$

COZ006>008-011-221700-
...WEST CENTRAL VALLEYS...

CITY           SKY/WX    TMP DP  RH WIND       PRES   REMARKS
GRAND JUNCTION FAIR      40  31  70 E6        30.49R
MONTROSE       FAIR      38  30  73 S5        30.53R
EAGLE          CLOUDY    35  30  82 CALM      30.55R
RIFLE          FAIR      35  32  88 CALM      30.51S
DELTA          FAIR      35  28  75 CALM      30.52R
NUCLA          FAIR      36  27  69 S3        30.52S
$$

COZ017>023-064>068-221700-
...SOUTHWEST COLORADO...

CITY           SKY/WX    TMP DP  RH WIND       PRES   REMARKS
DURANGO        FAIR      32  22  66 CALM      30.44R
CORTEZ         FAIR      42  28  57 E5        30.44S
PAGOSA SPRINGS FAIR      37  23  57 CALM      30.46S
TELLURIDE      FAIR      38  24  57 CALM      30.57R
WOLF CREEK PAS FAIR      32  14  47 N8        30.65S WCI  25
$$

COZ009-010-012-014-032>034-037-058>063-221700-
...CENTRAL COLORADO...

CITY           SKY/WX    TMP DP  RH WIND       PRES   REMARKS
ASPEN          FAIR      37  28  70 SE3       30.53R
BUENA VISTA    FAIR      48  28  45 NW13      30.43F
COPPER MTN     CLOUDY    32  28  86 MISG      30.62R
BERTHOUD PASS  CLOUDY    25  14  63 NW38G47   30.55R WCI   6
COTTONWOOD PAS FAIR      46  30  53 NW7       30.49R
GUNNISON       FAIR      26  23  88 CALM      30.56R
KREMMLING      CLOUDY    41  34  75 SE5       30.52S
LEADVILLE      PTSUNNY   36  27  69 NW8       30.52R
MONARCH PASS   PTSUNNY   28  27  93 W28G35    30.67S WCI  13
SALIDA         FAIR      46  26  46 CALM      30.51R
SUNLIGHT       PTSUNNY   32  28  86 NW3       30.64R
WILKERSON PASS FAIR      34  25  69 NW15G28   30.54R WCI  24
$$

COZ069>075-221700-
...SAN LUIS VALLEY/SANGRE DE CRISTO MOUNTAINS...

CITY           SKY/WX    TMP DP  RH WIND       PRES   REMARKS
ALAMOSA        FAIR      36  23  59 SW3       30.46R
DEL NORTE      NOT AVBL
LA VETA PASS   FAIR      32  23  69 SW20        N/A  WCI  20
SAGUACHE       FAIR      41  28  60 NW13      30.47R
$$

COZ035-036-038>040-221700-
...NORTHERN COLORADO FRONT RANGE...

CITY           SKY/WX    TMP DP  RH WIND       PRES   REMARKS
DENVER INTL AP CLOUDY    49  34  56 SW7       30.25R
DMNS CITY PARK   N/A     48  28  46 SW8       30.26R
AURORA         PTSUNNY   50  27  41 S5        30.27R
FRONT RANGE AP PTSUNNY   46  36  66 S6        30.26R
ERIE MUNI ARPT FAIR      39  35  86 SE6       30.31S
BOULDER MUN AP FAIR      41  36  81 SE3       30.24F
CENTENNIAL     PTSUNNY   51  29  42 SW6       30.28R
BROOMFIELD     CLOUDY    46  37  71 CALM      30.27R
FORT COLLINS   FAIR      40  37  89 SE6       30.25R
LONGMONT       FAIR      41  37  87 CALM      30.27R
$$

COZ041-046-047-076>085-087-088-221700-
...PIKES PEAK/PALMER DIVIDE AND SOUTHERN FOOTHILLS...

CITY           SKY/WX    TMP DP  RH WIND       PRES   REMARKS
COLO. SPRINGS  PTSUNNY   50  31  48 N6        30.31R
A. F. ACADEMY  FAIR      40  34  78 N3        30.30S
SCHRIEVER AFB  FAIR      52  23  32 CALM      30.31R
CHEYENNE MTN   FAIR      53  21  28 CALM      30.27R
ELLICOTT         N/A    N/A N/A N/A CALM      30.28S
FALCON         FAIR      48  28  46 W3        30.33R
FORT CARSON    FAIR      45  29  54 N8        30.28R
LIMON          FAIR      47  33  58 CALM      30.27R
MONUMENT HILL  FAIR      45  28  53 SW7       30.33R
CANON CITY     FAIR      55  28  35 W12       30.29R
WALSENBURG     FAIR      57  27  30 W15G24    30.30S
TRINIDAD       FAIR      46  29  51 SW10      30.32R
$$

COZ042>045-048>051-090-091-221700-
...NORTHEAST COLORADO...

CITY           SKY/WX    TMP DP  RH WIND       PRES   REMARKS
GREELEY ARPT   FAIR      40  35  83 VRB3      30.26R
AKRON          FAIR      45  32  60 W18       30.23R
BURLINGTON     FAIR      52  32  46 W8        30.23S
WRAY           NOT AVBL
YUMA           FAIR      48  32  53 W10       30.21S
STERLING       FAIR      37  32  81 SW10      30.21S
HOLYOKE        FAIR      52  36  54 W10       30.19S
FORT MORGAN    FAIR      38  31  75 W7        30.25R
$$

COZ086-089-092>099-221700-
...SOUTHEAST COLORADO...

CITY           SKY/WX    TMP DP  RH WIND       PRES   REMARKS
PUEBLO         FAIR      41  32  70 W6        30.28S
LA JUNTA       FAIR      40  30  67 W8        30.28R
LAMAR          FAIR      41  28  60 W8        30.27R
SPRINGFIELD      N/A     51  33  50 VRB6      30.26S
$$




USA.gov is the U.S. government's official web portal to all federal, state and local government web resources and services.